SCP
0 0 0 0 0 0 0 0 0 0 0 0 0 0 0 0 0 0 0 0 0 0
0 0 0 0 0 0 0 0 0 0 0 0 0 0 0 0 0 0 0 0 0 0
0 0 0 0 0 0 0 0 0 0 0 0 0 0 0 0 0 0 0 0 0 0
0 0 0 0 0 0 0 0 0 0 0 0 0 0 0 0 0 0 0 0 0 0
0 0 0 0 0 0 0 0 0 0 0 0 0 0 0 0 0 0 0 0 0 0
0 0 0 0 0 0 0 0 0 0 0 0 0 0 0 0 0 0 0 0 0 0
0 0 0 0 0 0 0 0 0 0 0 0 0 0 0 0 0 0 0 0 0 0
0 0 0 0 0 0 0 0 0 0 0 0 0 0 0 0 0 0 0 0 0 0
0 0 0 0 0 0 0 0 0 0 0 0 0 0 0 0 0 0 0 0 0 0
0 0 0 0 0 0 0 0 0 0 0 0 0 0 0 0 0 0 0 0 0 0
0 0 0 0 0 0 0 0 0 0 0 0 0 0 0 0 0 0 0 0 0 0
0 0 0 0 0 0 0 0 0 0 0 0 0 0 0 0 0 0 0 0 0 0
0 0 0 0 0 0 0 0 0 0 0 0 0 0 0 0 0 0 -0 0 0 0
0 0 0 0 0 0 0 0 0 0 0 0 0 0 0 0 0 -0 -0 0 0 0
Wind_Speed_500mb
54 60 63 70 77 82 85 90 89 89 86 87 92 95 96 101 100 91 87 84 87 71
52 60 67 71 76 84 87 89 91 89 91 93 95 99 98 102 103 95 88 87 94 99
56 60 67 72 77 83 86 88 89 90 91 95 99 101 98 97 96 93 85 70 73 81
57 63 68 74 78 83 86 85 88 90 93 95 100 101 97 92 93 90 83 86 83 91
60 64 69 75 80 83 86 84 85 91 96 101 101 98 92 91 86 84 83 80 75 85
60 66 72 76 81 83 86 88 87 90 93 98 101 93 88 82 82 79 81 83 85 85
61 67 73 78 80 81 84 89 91 92 94 94 94 85 76 70 74 78 79 80 77 80
64 69 73 77 79 81 82 86 89 94 93 92 87 81 68 66 70 74 81 78 74 75
68 71 74 75 78 81 82 84 88 91 93 91 83 68 67 67 76 76 79 82 83 78
71 74 74 75 76 79 82 86 89 90 89 86 81 68 66 65 69 76 81 79 82 82
70 72 72 73 73 76 82 86 87 89 86 83 75 66 65 64 66 69 70 83 81 82
68 69 70 72 72 74 83 88 89 86 84 82 72 63 64 63 64 72 75 86 75 72
63 65 67 67 69 72 79 87 89 91 89 90 84 75 67 61 53 66 70 60 76 70
56 60 60 63 64 72 79 85 90 92 91 84 76 82 63 58 62 66 68 65 74 62
Wind_Direction_500mb
314 314 314 315 316 317 318 317 318 315 314 313 310 307 305 300 295 289 274 262 254 257
314 314 315 317 317 317 317 316 315 314 312 311 310 307 305 298 294 290 283 272 261 248
313 314 316 317 318 316 315 315 315 313 312 311 308 306 302 296 291 287 284 269 263 254
314 317 316 317 318 316 316 317 316 314 312 310 307 304 300 291 287 283 278 277 272 258
314 316 319 319 320 320 319 320 318 316 314 310 305 303 298 291 285 278 278 277 272 261
316 318 320 322 321 322 322 321 319 315 313 311 307 304 298 290 287 281 277 277 272 266
318 321 323 321 322 324 323 321 319 317 315 313 309 303 295 285 280 278 277 278 273 265
321 323 323 324 325 323 323 321 320 320 318 316 314 308 298 292 288 288 291 290 285 266
323 325 327 327 326 325 325 324 323 324 325 322 316 300 292 286 285 284 280 279 280 280
328 329 329 328 329 328 327 328 331 330 328 327 320 304 298 292 287 285 284 281 276 275
329 329 330 331 333 331 330 333 334 334 338 331 322 308 302 298 294 290 285 284 280 270
330 332 334 334 336 336 335 336 338 339 341 340 333 325 311 307 303 298 303 288 287 275
333 336 336 335 337 341 339 339 340 341 346 344 336 329 314 310 307 308 296 299 293 286
335 337 335 337 343 345 343 342 345 345 345 336 329 330 323 317 307 303 298 297 308 289
Wind_Speed_850mb
54 60 63 70 77 82 85 90 89 89 86 87 92 95 96 101 100 91 87 84 87 71
52 60 67 71 76 84 87 89 91 89 91 93 95 99 98 102 103 95 88 87 94 99
56 60 67 72 77 83 86 88 89 90 91 95 99 101 98 97 96 93 85 70 73 81
57 63 68 74 78 83 86 85 88 90 93 95 100 101 97 92 93 90 83 86 83 91
60 64 69 75 80 83 86 84 85 91 96 101 101 98 92 91 86 84 83 80 75 85
60 66 72 76 81 83 86 88 87 90 93 98 101 93 88 82 82 79 81 83 85 85
61 67 73 78 80 81 84 89 91 92 94 94 94 85 76 70 74 78 79 80 77 80
64 69 73 77 79 81 82 86 89 94 93 92 87 81 68 66 70 74 81 78 74 75
68 71 74 75 78 81 82 84 88 91 93 91 83 68 67 67 76 76 79 82 83 78
71 74 74 75 76 79 82 86 89 90 89 86 81 68 66 65 69 76 81 79 82 82
70 72 72 73 73 76 82 86 87 89 86 83 75 66 65 64 66 69 70 83 81 82
68 69 70 72 72 74 83 88 89 86 84 82 72 63 64 63 64 72 75 86 75 72
63 65 67 67 69 72 79 87 89 91 89 90 84 75 67 61 53 66 70 60 76 70
56 60 60 63 64 72 79 85 90 92 91 84 76 82 63 58 62 66 68 65 74 62
Wind_Direction_850mb
314 314 314 315 316 317 318 317 318 315 314 313 310 307 305 300 295 289 274 262 254 257
314 314 315 317 317 317 317 316 315 314 312 311 310 307 305 298 294 290 283 272 261 248
313 314 316 317 318 316 315 315 315 313 312 311 308 306 302 296 291 287 284 269 263 254
314 317 316 317 318 316 316 317 316 314 312 310 307 304 300 291 287 283 278 277 272 258
314 316 319 319 320 320 319 320 318 316 314 310 305 303 298 291 285 278 278 277 272 261
316 318 320 322 321 322 322 321 319 315 313 311 307 304 298 290 287 281 277 277 272 266
318 321 323 321 322 324 323 321 319 317 315 313 309 303 295 285 280 278 277 278 273 265
321 323 323 324 325 323 323 321 320 320 318 316 314 308 298 292 288 288 291 290 285 266
323 325 327 327 326 325 325 324 323 324 325 322 316 300 292 286 285 284 280 279 280 280
328 329 329 328 329 328 327 328 331 330 328 327 320 304 298 292 287 285 284 281 276 275
329 329 330 331 333 331 330 333 334 334 338 331 322 308 302 298 294 290 285 284 280 270
330 332 334 334 336 336 335 336 338 339 341 340 333 325 311 307 303 298 303 288 287 275
333 336 336 335 337 341 339 339 340 341 346 344 336 329 314 310 307 308 296 299 293 286
335 337 335 337 343 345 343 342 345 345 345 336 329 330 323 317 307 303 298 297 308 289